EB1RD-13 Weather Reports


time (UTC)temp
F
wind
direction
speed
knots
gust
knots
rain 1hr
in
rain 24hr
in
rain mn
in
humidity
%
barometer
mb
20260506215525 56 270 0.0 1.7 0.00 0.00 0.00 68 1014.0
20260506214543 56 0.0 0.9 0.00 0.00 0.00 68 1014.1
20260506213523 55 0.0 0.0 0.00 0.00 0.00 68 1014.1
20260506212519 55 0.0 0.9 0.00 0.00 0.00 68 1014.1
20260506211537 56 0.0 1.7 0.00 0.00 0.00 68 1014.1
20260506210535 56 90 0.0 1.7 0.00 0.00 0.00 68 1014.1
20260506205613 56 45 0.0 1.7 0.00 0.00 0.00 68 1014.0
20260506204611 56 56 0.0 1.7 0.00 0.00 0.00 68 1014.1
20260506203609 56 48 0.9 2.6 0.00 0.00 0.00 69 1014.1
20260506202608 56 65 0.9 1.7 0.00 0.00 0.00 69 1014.0
20260506201605 56 90 0.0 1.7 0.00 0.00 0.00 70 1014.0
20260506200603 56 90 0.9 1.7 0.00 0.00 0.00 69 1013.9
20260506195602 56 37 1.7 4.3 0.00 0.00 0.00 69 1013.9
20260506194620 56 77 0.9 1.7 0.00 0.00 0.00 69 1013.9
20260506193559 56 54 0.9 1.7 0.00 0.00 0.00 69 1013.9
20260506192556 56 31 1.7 3.5 0.00 0.00 0.00 68 1013.7
20260506191636 56 40 5.2 7.0 0.00 0.00 0.00 68 1013.7
20260506190552 57 15 2.6 5.2 0.00 0.00 0.00 67 1013.7
20260506185550 57 14 2.6 3.5 0.00 0.00 0.00 66 1013.6
20260506184548 57 56 3.5 5.2 0.00 0.00 0.00 64 1013.6
20260506183546 57 45 5.2 7.8 0.00 0.00 0.00 63 1013.5
20260506182544 57 32 5.2 8.7 0.00 0.00 0.00 61 1013.5
20260506181542 58 28 2.6 5.2 0.00 0.00 0.00 59 1013.6
20260506180540 58 45 3.5 7.0 0.00 0.00 0.00 58 1013.6
20260506175538 59 2 3.5 6.1 0.00 0.00 0.00 57 1013.6
20260506174536 59 42 3.5 5.2 0.00 0.00 0.00 54 1013.6
20260506173534 60 19 6.1 10.4 0.00 0.00 0.00 52 1013.5
20260506172533 60 326 3.5 7.0 0.00 0.00 0.00 51 1013.5
20260506171530 61 30 2.6 7.0 0.00 0.00 0.00 52 1013.4
20260506170548 61 350 3.5 7.0 0.00 0.00 0.00 51 1013.3
20260506165526 61 309 3.5 7.0 0.00 0.00 0.00 49 1013.3
20260506164524 62 309 3.5 7.0 0.00 0.00 0.00 48 1013.3
20260506163522 64 293 2.6 6.1 0.00 0.00 0.00 44 1013.4
20260506162520 65 38 4.3 7.8 0.00 0.00 0.00 43 1013.4
20260506161518 65 13 2.6 7.0 0.00 0.00 0.00 44 1013.2
20260506160516 64 139 4.3 7.0 0.00 0.00 0.00 42 1013.4
20260506155614 64 27 5.2 8.7 0.00 0.00 0.00 41 1013.4
20260506154612 64 318 3.5 7.0 0.00 0.00 0.00 42 1013.6
20260506153610 64 287 2.6 5.2 0.00 0.00 0.00 43 1013.5
20260506152628 64 295 4.3 8.7 0.00 0.00 0.00 45 1013.7
20260506151606 64 317 4.3 7.0 0.00 0.00 0.00 44 1013.7
20260506150604 64 348 4.3 7.8 0.00 0.00 0.00 45 1013.8
20260506145602 64 309 3.5 6.1 0.00 0.00 0.00 48 1013.9
20260506144600 63 135 4.3 8.7 0.00 0.00 0.00 49 1013.8
20260506143619 63 232 3.5 7.8 0.00 0.00 0.00 49 1013.9
20260506142557 64 303 2.6 7.0 0.00 0.00 0.00 44 1013.9
20260506141555 64 284 1.7 3.5 0.00 0.00 0.00 42 1013.9
20260506140552 65 0 1.7 2.6 0.00 0.00 0.00 42 1014.2
20260506135550 65 256 1.7 5.2 0.00 0.00 0.00 43 1014.3
20260506134549 65 225 2.6 6.1 0.00 0.00 0.00 42 1014.4
20260506133546 64 10 1.7 3.5 0.00 0.00 0.00 42 1014.6
20260506132544 64 315 1.7 3.5 0.00 0.00 0.00 44 1014.6
20260506131542 63 7 1.7 3.5 0.00 0.00 0.00 44 1014.6
20260506130541 63 270 1.7 2.6 0.00 0.00 0.00 46 1014.7
20260506125539 63 36 1.7 3.5 0.00 0.00 0.00 45 1014.8
20260506124537 63 16 1.7 4.3 0.00 0.00 0.00 48 1014.8
20260506123535 63 36 2.6 4.3 0.00 0.00 0.00 48 1014.9
20260506122533 63 316 2.6 6.1 0.00 0.00 0.00 46 1014.9
20260506121551 64 315 3.5 7.0 0.00 0.00 0.00 44 1015.0
20260506120529 65 90 5.2 7.8 0.00 0.00 0.00 43 1014.9
20260506115547 64 251 2.6 5.2 0.00 0.01 0.00 43 1015.0
20260506114546 64 14 3.5 7.0 0.00 0.02 0.00 42 1015.1
20260506113523 63 253 1.7 3.5 0.00 0.02 0.00 40 1015.1
20260506112521 64 45 2.6 3.5 0.00 0.02 0.00 40 1015.0
20260506111519 64 54 1.7 4.3 0.00 0.02 0.00 39 1015.1
20260506110517 65 352 1.7 3.5 0.00 0.02 0.00 42 1015.2
20260506105517 64 50 1.7 3.5 0.00 0.02 0.00 41 1015.2
20260506104613 63 60 1.7 3.5 0.00 0.02 0.00 42 1015.2
20260506103611 61 39 1.7 3.5 0.00 0.02 0.00 46 1015.3
20260506102609 62 28 1.7 5.2 0.00 0.02 0.00 44 1015.2
20260506101607 64 19 1.7 3.5 0.00 0.02 0.00 42 1015.2
20260506100605 61 0.0 0.9 0.00 0.02 0.00 48 1015.3
20260506095623 60 250 2.6 6.1 0.00 0.02 0.00 46 1015.3
20260506094601 59 216 1.7 3.5 0.00 0.02 0.00 48 1015.3
20260506093559 59 227 3.5 7.8 0.00 0.02 0.00 48 1015.2
20260506092557 60 175 0.9 4.3 0.00 0.02 0.00 51 1015.3
20260506091555 59 212 1.7 3.5 0.00 0.02 0.00 51 1015.2
20260506090613 58 121 1.7 3.5 0.00 0.02 0.00 53 1015.2
20260506085551 58 189 1.7 3.5 0.00 0.02 0.00 54 1015.2
20260506084609 58 168 1.7 4.3 0.00 0.02 0.00 55 1015.3
20260506083547 58 213 0.9 2.6 0.00 0.02 0.00 62 1015.2
20260506082546 57 210 0.9 1.7 0.00 0.02 0.00 64 1015.3
20260506081543 56 78 1.7 3.5 0.00 0.02 0.00 66 1015.3
20260506080541 55 125 0.9 1.7 0.00 0.02 0.00 70 1015.3
20260506072533 53 129 0.0 1.7 0.00 0.02 0.00 75 1015.2
20260506071551 52 225 0.9 1.7 0.00 0.02 0.00 75 1015.2
20260506070529 52 229 0.9 2.6 0.00 0.02 0.00 76 1015.2
20260506061540 50 225 0.0 1.7 0.00 0.02 0.00 81 1014.8
20260506060518 50 0.0 0.9 0.00 0.02 0.00 81 1014.9
20260506050606 50 247 1.7 3.5 0.00 0.02 0.00 80 1014.5
20260506044602 50 150 0.9 1.7 0.00 0.02 0.00 82 1014.4
20260506043620 49 0.0 1.7 0.00 0.02 0.00 81 1014.5
20260506042558 49 0.0 0.0 0.00 0.02 0.00 81 1014.7
20260506041556 49 90 0.0 1.7 0.00 0.02 0.00 80 1014.8
20260506040614 50 90 0.9 1.7 0.00 0.02 0.00 79 1014.7
20260506035552 50 180 0.0 1.7 0.00 0.02 0.00 80 1014.8
20260506034550 50 173 0.0 1.7 0.00 0.02 0.00 80 1014.6
20260506033548 50 225 0.0 1.7 0.00 0.02 0.00 81 1014.7
20260506032546 50 0.0 0.9 0.00 0.02 0.00 80 1014.8
20260506031544 50 56 0.0 1.7 0.00 0.02 0.00 81 1014.8
20260506030542 50 60 0.0 1.7 0.00 0.02 0.00 80 1014.8
20260506025540 50 135 0.0 1.7 0.00 0.02 0.00 80 1014.9
20260506024618 50 146 0.9 2.6 0.00 0.02 0.00 81 1014.8
20260506023536 50 0.0 1.7 0.00 0.02 0.00 80 1014.8
20260506022556 50 233 0.9 1.7 0.00 0.02 0.00 80 1014.8
20260506021532 50 242 0.0 1.7 0.00 0.02 0.00 80 1014.8
20260506020530 50 0.0 0.9 0.00 0.02 0.00 79 1014.8
20260506015528 50 0 0.0 1.7 0.00 0.02 0.00 79 1014.9
20260506014546 50 276 0.0 3.5 0.00 0.02 0.00 80 1014.9
20260506013524 50 45 0.0 1.7 0.00 0.02 0.00 78 1015.0
20260506012522 50 0.0 0.9 0.00 0.02 0.00 78 1015.1
20260506011520 51 0.0 0.0 0.00 0.02 0.00 78 1015.2
20260506010518 51 0.0 0.9 0.00 0.02 0.00 78 1015.3
20260506005516 51 0.0 1.7 0.00 0.02 0.00 79 1015.5
20260506004614 51 0.0 0.9 0.00 0.02 0.00 79 1015.6
20260506003612 51 0.0 1.7 0.00 0.02 0.00 78 1015.8
20260506002610 51 180 0.0 1.7 0.00 0.02 0.00 78 1015.6
20260506001609 52 270 0.0 2.6 0.00 0.02 0.00 78 1015.7
20260506000628 52 0.0 0.9 0.00 0.02 0.00 77 1015.7
20260505235605 52 158 0.0 1.7 0.00 0.02 0.00 77 1015.7
20260505234603 52 0.0 1.7 0.00 0.02 0.00 76 1015.7
20260505233601 52 0.0 0.9 0.00 0.02 0.00 76 1015.8
20260505232600 52 180 0.0 1.7 0.00 0.02 0.00 75 1015.9
20260505231557 52 90 0.0 1.7 0.00 0.02 0.00 75 1015.7
20260505230555 52 23 0.9 1.7 0.00 0.02 0.00 74 1015.8
20260505225553 53 80 0.0 1.7 0.00 0.02 0.00 74 1015.8
20260505224551 52 106 0.9 3.5 0.00 0.02 0.00 74 1016.0
20260505223549 52 192 3.5 6.1 0.00 0.02 0.00 73 1015.9
20260505222547 52 246 0.9 3.5 0.00 0.02 0.00 73 1015.8
20260505221605 52 239 1.7 3.5 0.00 0.02 0.00 73 1015.8
20260505220543 52 180 1.7 3.5 0.00 0.02 0.00 73 1015.9